Location: Hamilton
(37.7830°S, 175.2830°E)
Time: 14:25:31
(UTC+13:00)

Cosmos 1939 Rocket - Pass Details

Date: 24 January 2019
Orbit: 531 x 587 km, 97.5° (Epoch: 16 February)

Event Time Altitude Azimuth Distance (km) Brightness Sun altitude
Rises 21:28:14 0° 169° (SSE) 2,848 6.8 -9.4°
Reaches altitude 10° 21:30:25 10° 168° (SSE) 1,942 5.9 -9.8°
Maximum altitude 21:34:39 89° 103° (ESE) 601 3.0 -10.5°
Drops below altitude 10° 21:38:50 10° 347° (NNW) 1,913 5.4 -11.2°
Sets 21:40:58 0° 347° (NNW) 2,802 6.2 -11.5°
